Time,TemperatureF,DewpointF,PressureIn,WindDirection,WindDirectionDegrees,WindSpeedMPH,WindSpeedGustMPH,Humidity,HourlyPrecipIn,Conditions,Clouds,dailyrainin,SoftwareType,DateUTC
2013-08-23 00:04:00,-999.9,-99.9,29.76,North,32767,-999.0,0.0,255,-99.99,,,0.00,Wunderground v.1.15,2013-08-23 04:04:00,
2013-08-23 00:09:00,-999.9,-99.9,29.76,North,32767,-999.0,0.0,255,-99.99,,,0.00,Wunderground v.1.15,2013-08-23 04:09:00,
2013-08-23 00:14:00,-999.9,-99.9,29.76,SW,234,0.0,0.0,255,0.00,,,0.00,Wunderground v.1.15,2013-08-23 04:14:00,
2013-08-23 00:19:00,71.8,-99.9,29.76,SW,234,0.0,0.0,255,0.00,,,0.00,Wunderground v.1.15,2013-08-23 04:19:00,
2013-08-23 00:24:00,71.8,-99.9,29.76,SW,234,0.0,0.0,255,0.00,,,0.00,Wunderground v.1.15,2013-08-23 04:24:00,
2013-08-23 00:29:00,71.8,-99.9,29.77,SW,234,0.0,0.0,255,0.00,,,0.00,Wunderground v.1.15,2013-08-23 04:29:00,
2013-08-23 00:34:00,71.8,-99.9,29.77,SW,234,0.0,0.0,255,0.00,,,0.00,Wunderground v.1.15,2013-08-23 04:34:00,
2013-08-23 00:39:00,71.8,-99.9,29.77,SW,234,0.0,0.0,255,0.00,,,0.00,Wunderground v.1.15,2013-08-23 04:39:00,
2013-08-23 00:44:00,71.8,-99.9,29.77,SW,234,0.0,0.0,255,0.00,,,0.00,Wunderground v.1.15,2013-08-23 04:44:00,
2013-08-23 00:49:00,71.8,-99.9,29.77,SW,234,0.0,0.0,255,0.00,,,0.00,Wunderground v.1.15,2013-08-23 04:49:00,
2013-08-23 01:00:00,71.8,-99.9,29.77,SW,234,0.0,0.0,255,0.00,,,0.00,Wunderground v.1.15,2013-08-23 05:00:00,
2013-08-23 01:09:00,71.8,-99.9,29.77,SW,234,0.0,0.0,255,0.00,,,0.00,Wunderground v.1.15,2013-08-23 05:09:00,
2013-08-23 01:14:00,71.5,-99.9,29.77,SW,234,0.0,0.0,255,0.00,,,0.00,Wunderground v.1.15,2013-08-23 05:14:00,
2013-08-23 01:19:00,71.5,-99.9,29.77,SW,234,0.0,0.0,255,0.00,,,0.00,Wunderground v.1.15,2013-08-23 05:19:00,
2013-08-23 01:29:00,71.5,-99.9,29.78,SW,234,0.0,0.0,255,0.00,,,0.00,Wunderground v.1.15,2013-08-23 05:29:00,
2013-08-23 01:34:00,71.5,-99.9,29.78,SW,234,0.0,0.0,255,0.00,,,0.00,Wunderground v.1.15,2013-08-23 05:34:00,
2013-08-23 01:39:00,71.5,-99.9,29.78,SW,234,0.0,0.0,255,0.00,,,0.00,Wunderground v.1.15,2013-08-23 05:39:00,
2013-08-23 01:44:00,-999.9,-99.9,29.77,North,32767,-999.0,0.0,255,-99.99,,,0.00,Wunderground v.1.15,2013-08-23 05:44:00,
2013-08-23 01:49:00,-999.9,-99.9,29.77,North,32767,-999.0,0.0,255,-99.99,,,0.00,Wunderground v.1.15,2013-08-23 05:49:00,
2013-08-23 01:54:00,-999.9,-99.9,29.77,North,32767,-999.0,0.0,255,-99.99,,,0.00,Wunderground v.1.15,2013-08-23 05:54:00,
2013-08-23 02:04:00,-999.9,-99.9,29.77,North,32767,-999.0,0.0,255,-99.99,,,0.00,Wunderground v.1.15,2013-08-23 06:04:00,
2013-08-23 02:09:00,-999.9,-99.9,29.77,North,32767,-999.0,0.0,255,-99.99,,,0.00,Wunderground v.1.15,2013-08-23 06:09:00,
2013-08-23 02:14:00,-999.9,-99.9,29.78,SW,234,0.0,0.0,255,0.00,,,0.00,Wunderground v.1.15,2013-08-23 06:14:00,
2013-08-23 02:19:00,-999.9,-99.9,29.78,SW,234,0.0,0.0,255,0.00,,,0.00,Wunderground v.1.15,2013-08-23 06:19:00,
2013-08-23 02:24:00,-999.9,-99.9,29.78,SW,234,0.0,0.0,255,0.00,,,0.00,Wunderground v.1.15,2013-08-23 06:24:00,
2013-08-23 02:34:00,-999.9,-99.9,29.78,North,32767,-999.0,0.0,255,-99.99,,,0.00,Wunderground v.1.15,2013-08-23 06:34:00,
2013-08-23 02:39:00,-999.9,-99.9,29.78,North,32767,-999.0,0.0,255,-99.99,,,0.00,Wunderground v.1.15,2013-08-23 06:39:00,
2013-08-23 02:44:00,-999.9,-99.9,29.78,North,32767,-999.0,0.0,255,-99.99,,,0.00,Wunderground v.1.15,2013-08-23 06:44:00,
2013-08-23 02:50:00,-999.9,-99.9,29.78,North,32767,-999.0,0.0,255,-99.99,,,0.00,Wunderground v.1.15,2013-08-23 06:50:00,
2013-08-23 02:55:00,-999.9,-99.9,29.78,North,32767,-999.0,0.0,255,-99.99,,,0.00,Wunderground v.1.15,2013-08-23 06:55:00,
2013-08-23 03:00:00,70.6,-99.9,29.78,SSE,167,0.0,0.0,255,-99.99,,,0.00,Wunderground v.1.15,2013-08-23 07:00:00,
2013-08-23 03:09:00,70.4,-99.9,29.78,SSE,167,0.0,0.0,255,0.00,,,0.00,Wunderground v.1.15,2013-08-23 07:09:00,
2013-08-23 03:15:00,70.4,-99.9,29.78,SSE,167,0.0,0.0,255,0.00,,,0.00,Wunderground v.1.15,2013-08-23 07:15:00,
2013-08-23 03:20:00,70.4,-99.9,29.78,SSE,165,0.0,0.0,255,0.00,,,0.00,Wunderground v.1.15,2013-08-23 07:20:00,
2013-08-23 03:25:00,70.4,-99.9,29.78,SSE,167,0.0,0.0,255,0.00,,,0.00,Wunderground v.1.15,2013-08-23 07:25:00,
2013-08-23 03:30:00,70.3,-99.9,29.78,SSE,167,0.0,0.0,255,0.00,,,0.00,Wunderground v.1.15,2013-08-23 07:30:00,
2013-08-23 03:40:00,70.1,-99.9,29.78,SSE,164,0.0,0.0,255,0.00,,,0.00,Wunderground v.1.15,2013-08-23 07:40:00,
2013-08-23 03:45:00,70.1,-99.9,29.78,SE,133,0.0,0.0,255,0.00,,,0.00,Wunderground v.1.15,2013-08-23 07:45:00,
2013-08-23 03:54:00,70.1,-99.9,29.78,WNW,285,0.0,0.0,255,0.00,,,0.00,Wunderground v.1.15,2013-08-23 07:54:00,
2013-08-23 03:59:00,70.1,-99.9,29.78,WNW,285,0.0,0.0,255,0.00,,,0.00,Wunderground v.1.15,2013-08-23 07:59:00,
2013-08-23 04:04:00,70.1,-99.9,29.78,WNW,285,0.0,0.0,255,0.00,,,0.00,Wunderground v.1.15,2013-08-23 08:04:00,
2013-08-23 04:14:00,68.9,-99.9,29.79,SSE,168,0.0,0.0,255,0.00,,,0.00,Wunderground v.1.15,2013-08-23 08:14:00,
2013-08-23 04:19:00,-999.9,-99.9,29.79,North,32767,-999.0,0.0,255,-99.99,,,0.00,Wunderground v.1.15,2013-08-23 08:19:00,
2013-08-23 04:24:00,-999.9,-99.9,29.79,North,32767,-999.0,0.0,255,-99.99,,,0.00,Wunderground v.1.15,2013-08-23 08:24:00,
2013-08-23 04:29:00,-999.9,-99.9,29.78,North,32767,-999.0,0.0,255,-99.99,,,0.00,Wunderground v.1.15,2013-08-23 08:29:00,
2013-08-23 04:34:00,-999.9,-99.9,29.78,North,32767,-999.0,0.0,255,-99.99,,,0.00,Wunderground v.1.15,2013-08-23 08:34:00,
2013-08-23 04:40:00,-999.9,-99.9,29.78,North,32767,-999.0,0.0,255,-99.99,,,0.00,Wunderground v.1.15,2013-08-23 08:40:00,
2013-08-23 04:49:00,-999.9,-99.9,29.79,North,32767,-999.0,0.0,255,-99.99,,,0.00,Wunderground v.1.15,2013-08-23 08:49:00,
2013-08-23 04:54:00,-999.9,-99.9,29.79,SE,140,0.0,0.0,255,0.00,,,0.00,Wunderground v.1.15,2013-08-23 08:54:00,
2013-08-23 04:59:00,-999.9,-99.9,29.80,SE,137,0.0,0.0,255,0.00,,,0.00,Wunderground v.1.15,2013-08-23 08:59:00,
2013-08-23 05:05:00,-999.9,-99.9,29.80,SE,137,0.0,0.0,255,0.00,,,0.00,Wunderground v.1.15,2013-08-23 09:05:00,
2013-08-23 05:10:00,-999.9,-99.9,29.80,SE,137,0.0,0.0,255,0.00,,,0.00,Wunderground v.1.15,2013-08-23 09:10:00,
2013-08-23 05:19:00,-999.9,-99.9,29.80,North,32767,-999.0,0.0,255,-99.99,,,0.00,Wunderground v.1.15,2013-08-23 09:19:00,
2013-08-23 05:25:00,-999.9,-99.9,29.80,North,32767,-999.0,0.0,255,-99.99,,,0.00,Wunderground v.1.15,2013-08-23 09:25:00,
2013-08-23 05:30:00,-999.9,-99.9,29.81,North,32767,-999.0,0.0,255,-99.99,,,0.00,Wunderground v.1.15,2013-08-23 09:30:00,
2013-08-23 05:35:00,-999.9,-99.9,29.81,North,32767,-999.0,0.0,255,-99.99,,,0.00,Wunderground v.1.15,2013-08-23 09:35:00,
2013-08-23 05:40:00,-999.9,-99.9,29.81,North,32767,-999.0,0.0,255,-99.99,,,0.00,Wunderground v.1.15,2013-08-23 09:40:00,
2013-08-23 05:45:00,-999.9,-99.9,29.81,North,32767,-999.0,0.0,255,-99.99,,,0.00,Wunderground v.1.15,2013-08-23 09:45:00,
2013-08-23 05:55:00,-999.9,-99.9,29.81,SE,145,0.0,0.0,255,0.00,,,0.00,Wunderground v.1.15,2013-08-23 09:55:00,
2013-08-23 06:00:00,-999.9,-99.9,29.82,SE,145,0.0,0.0,255,0.00,,,0.00,Wunderground v.1.15,2013-08-23 10:00:00,
2013-08-23 06:05:00,-999.9,-99.9,29.82,SE,145,0.0,0.0,255,0.00,,,0.00,Wunderground v.1.15,2013-08-23 10:05:00,
2013-08-23 06:10:00,-999.9,-99.9,29.82,SE,145,0.0,0.0,255,0.00,,,0.00,Wunderground v.1.15,2013-08-23 10:10:00,
2013-08-23 06:15:00,-999.9,-99.9,29.83,SE,145,0.0,0.0,255,0.00,,,0.00,Wunderground v.1.15,2013-08-23 10:15:00,
2013-08-23 06:24:00,-999.9,-99.9,29.83,SE,145,0.0,0.0,255,0.00,,,0.00,Wunderground v.1.15,2013-08-23 10:24:00,
2013-08-23 06:29:00,-999.9,-99.9,29.84,SE,145,0.0,0.0,255,0.00,,,0.00,Wunderground v.1.15,2013-08-23 10:29:00,
2013-08-23 06:34:00,-999.9,-99.9,29.84,SE,145,0.0,0.0,255,0.00,,,0.00,Wunderground v.1.15,2013-08-23 10:34:00,
2013-08-23 06:40:00,-999.9,-99.9,29.84,North,32767,-999.0,0.0,255,-99.99,,,0.00,Wunderground v.1.15,2013-08-23 10:40:00,
2013-08-23 06:45:00,-999.9,-99.9,29.85,North,32767,-999.0,0.0,255,-99.99,,,0.00,Wunderground v.1.15,2013-08-23 10:45:00,
2013-08-23 06:50:00,-999.9,-99.9,29.85,North,32767,-999.0,0.0,255,-99.99,,,0.00,Wunderground v.1.15,2013-08-23 10:50:00,
2013-08-23 07:00:00,-999.9,-99.9,29.85,North,32767,-999.0,0.0,255,-99.99,,,0.00,Wunderground v.1.15,2013-08-23 11:00:00,
2013-08-23 07:05:00,-999.9,-99.9,29.85,North,32767,-999.0,0.0,255,-99.99,,,0.00,Wunderground v.1.15,2013-08-23 11:05:00,
2013-08-23 07:10:00,-999.9,-99.9,29.85,North,32767,-999.0,0.0,255,-99.99,,,0.00,Wunderground v.1.15,2013-08-23 11:10:00,
2013-08-23 07:15:00,65.6,-99.9,29.85,SE,145,0.0,0.0,255,0.00,,,0.00,Wunderground v.1.15,2013-08-23 11:15:00,
2013-08-23 07:20:00,65.6,-99.9,29.85,SE,145,0.0,0.0,255,0.00,,,0.00,Wunderground v.1.15,2013-08-23 11:20:00,
2013-08-23 07:30:00,65.6,-99.9,29.86,SE,136,0.0,0.0,255,0.00,,,0.00,Wunderground v.1.15,2013-08-23 11:30:00,
2013-08-23 07:35:00,65.6,-99.9,29.86,SE,136,0.0,0.0,255,0.00,,,0.00,Wunderground v.1.15,2013-08-23 11:35:00,
2013-08-23 07:40:00,65.6,-99.9,29.86,SE,136,0.0,0.0,255,0.00,,,0.00,Wunderground v.1.15,2013-08-23 11:40:00,
2013-08-23 07:45:00,-999.9,-99.9,29.87,North,32767,-999.0,0.0,255,-99.99,,,0.00,Wunderground v.1.15,2013-08-23 11:45:00,
2013-08-23 07:50:00,-999.9,-99.9,29.87,North,32767,-999.0,0.0,255,-99.99,,,0.00,Wunderground v.1.15,2013-08-23 11:50:00,
2013-08-23 07:55:00,-999.9,-99.9,29.87,North,32767,-999.0,0.0,255,-99.99,,,0.00,Wunderground v.1.15,2013-08-23 11:55:00,
2013-08-23 08:05:00,-999.9,-99.9,29.87,North,32767,-999.0,0.0,255,-99.99,,,0.00,Wunderground v.1.15,2013-08-23 12:05:00,
2013-08-23 08:10:00,-999.9,-99.9,29.87,North,32767,-999.0,0.0,255,-99.99,,,0.00,Wunderground v.1.15,2013-08-23 12:10:00,
2013-08-23 08:15:00,-999.9,-99.9,29.88,SE,136,0.0,0.0,255,0.00,,,0.00,Wunderground v.1.15,2013-08-23 12:15:00,
2013-08-23 08:24:00,-999.9,-99.9,29.88,SE,136,0.0,0.0,255,0.00,,,0.00,Wunderground v.1.15,2013-08-23 12:24:00,
2013-08-23 08:29:00,-999.9,-99.9,29.88,SE,137,0.0,0.0,255,0.00,,,0.00,Wunderground v.1.15,2013-08-23 12:29:00,
2013-08-23 08:35:00,-999.9,-99.9,29.88,SE,136,0.0,0.0,255,0.00,,,0.00,Wunderground v.1.15,2013-08-23 12:35:00,
2013-08-23 08:44:00,68.3,-99.9,29.89,SE,137,0.0,0.0,255,0.00,,,0.00,Wunderground v.1.15,2013-08-23 12:44:00,
2013-08-23 08:49:00,68.6,-99.9,29.89,SE,137,0.0,0.0,255,0.00,,,0.00,Wunderground v.1.15,2013-08-23 12:49:00,
2013-08-23 08:54:00,68.4,-99.9,29.89,SE,137,0.0,0.0,255,0.00,,,0.00,Wunderground v.1.15,2013-08-23 12:54:00,
2013-08-23 08:59:00,68.4,62.3,29.89,SE,137,0.0,0.0,81,0.00,,,0.00,Wunderground v.1.15,2013-08-23 12:59:00,
2013-08-23 09:09:00,69.3,63.2,29.89,SE,136,0.0,0.0,81,0.00,,,0.00,Wunderground v.1.15,2013-08-23 13:09:00,
2013-08-23 09:14:00,69.8,63.7,29.90,SE,136,0.0,0.0,81,0.00,,,0.00,Wunderground v.1.15,2013-08-23 13:14:00,
2013-08-23 09:19:00,69.8,63.7,29.90,SE,136,0.0,0.0,81,0.00,,,0.00,Wunderground v.1.15,2013-08-23 13:19:00,
2013-08-23 09:24:00,70.3,64.2,29.90,SE,137,0.0,0.0,81,0.00,,,0.00,Wunderground v.1.15,2013-08-23 13:24:00,
2013-08-23 09:29:00,70.8,64.7,29.90,SE,138,0.0,0.0,81,0.00,,,0.00,Wunderground v.1.15,2013-08-23 13:29:00,
2013-08-23 09:34:00,71.1,65.0,29.90,SE,136,0.0,0.0,81,0.00,,,0.00,Wunderground v.1.15,2013-08-23 13:34:00,
2013-08-23 09:44:00,70.9,63.7,29.91,SE,131,0.0,0.0,78,0.00,,,0.00,Wunderground v.1.15,2013-08-23 13:44:00,
2013-08-23 09:49:00,71.3,64.1,29.91,SE,131,0.0,0.0,78,0.00,,,0.00,Wunderground v.1.15,2013-08-23 13:49:00,
2013-08-23 09:54:00,71.6,64.4,29.91,SE,131,0.0,0.0,78,0.00,,,0.00,Wunderground v.1.15,2013-08-23 13:54:00,
2013-08-23 10:00:00,72.5,63.7,29.91,SE,130,0.0,0.0,74,0.00,,,0.00,Wunderground v.1.15,2013-08-23 14:00:00,
2013-08-23 10:05:00,72.3,63.5,29.91,SE,130,0.0,0.0,74,0.00,,,0.00,Wunderground v.1.15,2013-08-23 14:05:00,
2013-08-23 10:15:00,73.3,62.9,29.91,SSW,195,0.0,0.0,70,0.00,,,0.00,Wunderground v.1.15,2013-08-23 14:15:00,
2013-08-23 10:20:00,74.0,63.6,29.91,West,278,0.0,0.0,70,0.00,,,0.00,Wunderground v.1.15,2013-08-23 14:20:00,
2013-08-23 10:25:00,73.9,63.5,29.91,West,278,0.0,0.0,70,0.00,,,0.00,Wunderground v.1.15,2013-08-23 14:25:00,
2013-08-23 10:34:00,72.1,61.8,29.91,WSW,243,0.0,0.0,70,0.00,,,0.00,Wunderground v.1.15,2013-08-23 14:34:00,
2013-08-23 10:39:00,72.0,63.3,29.91,WSW,243,0.0,0.0,74,0.00,,,0.00,Wunderground v.1.15,2013-08-23 14:39:00,
2013-08-23 10:49:00,72.0,62.9,29.92,WSW,243,0.0,0.0,73,0.00,,,0.00,Wunderground v.1.15,2013-08-23 14:49:00,
2013-08-23 10:54:00,71.3,63.0,29.92,WSW,243,0.0,0.0,75,0.00,,,0.00,Wunderground v.1.15,2013-08-23 14:54:00,
2013-08-23 10:59:00,72.3,63.2,29.91,SSW,193,0.0,0.0,73,0.00,,,0.00,Wunderground v.1.15,2013-08-23 14:59:00,
2013-08-23 11:04:00,72.7,63.1,29.91,North,6,0.0,0.0,72,0.00,,,0.00,Wunderground v.1.15,2013-08-23 15:04:00,
2013-08-23 11:09:00,72.8,63.2,29.91,NNW,336,0.0,0.0,72,0.00,,,0.00,Wunderground v.1.15,2013-08-23 15:09:00,
2013-08-23 11:14:00,73.7,63.7,29.91,SSW,206,0.0,0.0,71,0.00,,,0.00,Wunderground v.1.15,2013-08-23 15:14:00,
2013-08-23 11:24:00,75.1,61.2,29.91,ESE,109,0.0,2.0,62,0.00,,,0.00,Wunderground v.1.15,2013-08-23 15:24:00,
2013-08-23 11:29:00,76.0,62.0,29.91,ESE,109,0.0,2.0,62,0.00,,,0.00,Wunderground v.1.15,2013-08-23 15:29:00,
2013-08-23 11:34:00,76.3,62.3,29.91,South,178,0.0,2.0,62,0.00,,,0.00,Wunderground v.1.15,2013-08-23 15:34:00,
2013-08-23 11:39:00,76.0,62.0,29.91,WSW,258,1.0,1.0,62,0.00,,,0.00,Wunderground v.1.15,2013-08-23 15:39:00,
2013-08-23 11:45:00,75.6,61.7,29.91,WSW,258,0.0,1.0,62,0.00,,,0.00,Wunderground v.1.15,2013-08-23 15:45:00,
2013-08-23 11:55:00,76.7,62.2,29.91,WSW,258,0.0,0.0,61,0.00,,,0.00,Wunderground v.1.15,2013-08-23 15:55:00,
2013-08-23 12:00:00,77.2,62.7,29.91,WSW,258,0.0,0.0,61,0.00,,,0.00,Wunderground v.1.15,2013-08-23 16:00:00,
2013-08-23 12:05:00,77.4,59.5,29.91,South,171,0.0,1.0,54,0.00,,,0.00,Wunderground v.1.15,2013-08-23 16:05:00,
2013-08-23 12:10:00,77.2,59.3,29.91,South,171,0.0,0.0,54,0.00,,,0.00,Wunderground v.1.15,2013-08-23 16:10:00,
2013-08-23 12:15:00,77.2,59.3,29.91,South,182,0.0,0.0,54,0.00,,,0.00,Wunderground v.1.15,2013-08-23 16:15:00,
2013-08-23 12:20:00,76.3,58.4,29.91,SSE,164,0.0,0.0,54,0.00,,,0.00,Wunderground v.1.15,2013-08-23 16:20:00,
2013-08-23 12:30:00,76.7,59.8,29.91,SSE,155,0.0,0.0,56,0.00,,,0.00,Wunderground v.1.15,2013-08-23 16:30:00,
2013-08-23 12:35:00,76.8,58.4,29.91,SSE,155,0.0,0.0,53,0.00,,,0.00,Wunderground v.1.15,2013-08-23 16:35:00,
2013-08-23 12:44:00,77.2,59.3,29.91,SSE,164,0.0,0.0,54,0.00,,,0.00,Wunderground v.1.15,2013-08-23 16:44:00,
2013-08-23 12:49:00,77.7,58.1,29.91,SSE,152,0.0,0.0,51,0.00,,,0.00,Wunderground v.1.15,2013-08-23 16:49:00,
2013-08-23 12:54:00,77.9,57.2,29.91,SE,128,0.0,0.0,49,0.00,,,0.00,Wunderground v.1.15,2013-08-23 16:54:00,
2013-08-23 13:04:00,77.9,57.8,29.91,SE,133,0.0,0.0,50,0.00,,,0.00,Wunderground v.1.15,2013-08-23 17:04:00,
2013-08-23 13:09:00,79.4,59.7,29.91,SE,133,0.0,0.0,51,0.00,,,0.00,Wunderground v.1.15,2013-08-23 17:09:00,
2013-08-23 13:14:00,79.6,58.8,29.90,SE,134,0.0,0.0,49,0.00,,,0.00,Wunderground v.1.15,2013-08-23 17:14:00,
2013-08-23 13:19:00,79.8,58.9,29.90,SE,134,0.0,0.0,49,0.00,,,0.00,Wunderground v.1.15,2013-08-23 17:19:00,
2013-08-23 13:24:00,79.8,57.2,29.90,SE,126,0.0,0.0,46,0.00,,,0.00,Wunderground v.1.15,2013-08-23 17:24:00,
2013-08-23 13:34:00,80.1,57.5,29.90,WSW,258,1.0,1.0,46,0.00,,,0.00,Wunderground v.1.15,2013-08-23 17:34:00,
2013-08-23 13:39:00,79.9,56.7,29.90,WSW,258,0.0,0.0,45,0.00,,,0.00,Wunderground v.1.15,2013-08-23 17:39:00,
2013-08-23 13:44:00,79.8,56.6,29.91,North,0,0.0,0.0,45,0.00,,,0.00,Wunderground v.1.15,2013-08-23 17:44:00,
2013-08-23 13:49:00,79.8,56.6,29.91,SSE,147,0.0,0.0,45,0.00,,,0.00,Wunderground v.1.15,2013-08-23 17:49:00,
2013-08-23 13:54:00,79.8,56.6,29.91,SSE,147,0.0,0.0,45,0.00,,,0.00,Wunderground v.1.15,2013-08-23 17:54:00,
2013-08-23 13:59:00,79.8,56.6,29.91,SSE,147,0.0,0.0,45,0.00,,,0.00,Wunderground v.1.15,2013-08-23 17:59:00,
2013-08-23 14:09:00,79.6,56.4,29.91,SSE,147,0.0,0.0,45,0.00,,,0.00,Wunderground v.1.15,2013-08-23 18:09:00,
2013-08-23 14:14:00,79.6,56.4,29.91,SW,226,0.0,0.0,45,0.00,,,0.00,Wunderground v.1.15,2013-08-23 18:14:00,
2013-08-23 14:19:00,79.6,56.4,29.91,SW,226,0.0,0.0,45,0.00,,,0.00,Wunderground v.1.15,2013-08-23 18:19:00,
2013-08-23 14:24:00,79.6,56.4,29.91,SW,226,0.0,0.0,45,0.00,,,0.00,Wunderground v.1.15,2013-08-23 18:24:00,
2013-08-23 14:29:00,79.0,55.8,29.92,SW,234,0.0,0.0,45,0.00,,,0.00,Wunderground v.1.15,2013-08-23 18:29:00,
2013-08-23 14:39:00,78.8,55.7,29.92,SE,126,0.0,0.0,45,0.00,,,0.00,Wunderground v.1.15,2013-08-23 18:39:00,
2013-08-23 14:44:00,78.8,55.7,29.92,North,11,0.0,0.0,45,0.00,,,0.00,Wunderground v.1.15,2013-08-23 18:44:00,
2013-08-23 14:49:00,78.6,55.5,29.92,North,11,0.0,0.0,45,0.00,,,0.00,Wunderground v.1.15,2013-08-23 18:49:00,
2013-08-23 14:54:00,78.6,55.5,29.92,North,11,0.0,0.0,45,0.00,,,0.00,Wunderground v.1.15,2013-08-23 18:54:00,
2013-08-23 14:59:00,78.5,55.4,29.92,NNE,14,0.0,0.0,45,0.00,,,0.00,Wunderground v.1.15,2013-08-23 18:59:00,
2013-08-23 15:05:00,78.5,55.4,29.92,NNE,14,0.0,0.0,45,0.00,,,0.00,Wunderground v.1.15,2013-08-23 19:05:00,
2013-08-23 15:14:00,78.5,55.4,29.92,NNE,32,0.0,0.0,45,0.00,,,0.00,Wunderground v.1.15,2013-08-23 19:14:00,
2013-08-23 15:19:00,78.3,55.2,29.92,NNE,32,0.0,0.0,45,0.00,,,0.00,Wunderground v.1.15,2013-08-23 19:19:00,
2013-08-23 15:24:00,78.3,55.2,29.92,NNW,343,0.0,1.0,45,0.00,,,0.00,Wunderground v.1.15,2013-08-23 19:24:00,
2013-08-23 15:30:00,78.3,56.4,29.92,NNW,343,0.0,0.0,47,0.00,,,0.00,Wunderground v.1.15,2013-08-23 19:30:00,
2013-08-23 15:35:00,78.1,56.2,29.92,NNW,343,0.0,0.0,47,0.00,,,0.00,Wunderground v.1.15,2013-08-23 19:35:00,
2013-08-23 15:44:00,77.9,57.2,29.93,NNW,337,0.0,0.0,49,0.00,,,0.00,Wunderground v.1.15,2013-08-23 19:44:00,
2013-08-23 15:50:00,77.6,56.9,29.93,NNW,337,0.0,0.0,49,0.00,,,0.00,Wunderground v.1.15,2013-08-23 19:50:00,
2013-08-23 15:55:00,77.4,56.2,29.93,NNW,337,0.0,0.0,48,0.00,,,0.00,Wunderground v.1.15,2013-08-23 19:55:00,
2013-08-23 16:00:00,77.4,56.2,29.93,NNW,337,0.0,0.0,48,0.00,,,0.00,Wunderground v.1.15,2013-08-23 20:00:00,
2013-08-23 16:05:00,77.4,56.2,29.93,NNW,337,0.0,0.0,48,0.00,,,0.00,Wunderground v.1.15,2013-08-23 20:05:00,
2013-08-23 16:10:00,77.0,56.4,29.93,NNW,337,0.0,0.0,49,0.00,,,0.00,Wunderground v.1.15,2013-08-23 20:10:00,
2013-08-23 16:20:00,76.8,56.2,29.93,SSE,150,0.0,0.0,49,0.00,,,0.00,Wunderground v.1.15,2013-08-23 20:20:00,
2013-08-23 16:25:00,76.8,56.2,29.93,SSE,150,0.0,0.0,49,0.00,,,0.00,Wunderground v.1.15,2013-08-23 20:25:00,
2013-08-23 16:30:00,76.5,55.9,29.93,SSE,150,0.0,0.0,49,0.00,,,0.00,Wunderground v.1.15,2013-08-23 20:30:00,
2013-08-23 16:35:00,76.3,55.7,29.93,SSE,150,0.0,0.0,49,0.00,,,0.00,Wunderground v.1.15,2013-08-23 20:35:00,
2013-08-23 16:40:00,76.1,55.5,29.93,SSE,150,0.0,0.0,49,0.00,,,0.00,Wunderground v.1.15,2013-08-23 20:40:00,
2013-08-23 16:50:00,76.0,55.5,29.94,SSE,158,0.0,0.0,49,0.00,,,0.00,Wunderground v.1.15,2013-08-23 20:50:00,
2013-08-23 16:55:00,75.8,55.3,29.94,SSE,158,0.0,0.0,49,0.00,,,0.00,Wunderground v.1.15,2013-08-23 20:55:00,
2013-08-23 17:00:00,75.8,55.3,29.94,SSE,158,0.0,0.0,49,0.00,,,0.00,Wunderground v.1.15,2013-08-23 21:00:00,
2013-08-23 17:09:00,75.8,55.3,29.94,SSE,158,0.0,0.0,49,0.00,,,0.00,Wunderground v.1.15,2013-08-23 21:09:00,
2013-08-23 17:14:00,75.8,55.3,29.94,SSE,164,0.0,0.0,49,0.00,,,0.00,Wunderground v.1.15,2013-08-23 21:14:00,
2013-08-23 17:20:00,75.8,55.3,29.94,SSE,164,0.0,0.0,49,0.00,,,0.00,Wunderground v.1.15,2013-08-23 21:20:00,
2013-08-23 17:25:00,75.4,54.9,29.94,SSE,164,0.0,0.0,49,0.00,,,0.00,Wunderground v.1.15,2013-08-23 21:25:00,
2013-08-23 17:30:00,75.4,54.9,29.95,SSE,164,0.0,0.0,49,0.00,,,0.00,Wunderground v.1.15,2013-08-23 21:30:00,
2013-08-23 17:35:00,75.4,54.9,29.95,SSE,164,0.0,0.0,49,0.00,,,0.00,Wunderground v.1.15,2013-08-23 21:35:00,
2013-08-23 17:44:00,74.9,54.4,29.95,SSE,164,0.0,0.0,49,0.00,,,0.00,Wunderground v.1.15,2013-08-23 21:44:00,
2013-08-23 17:49:00,74.9,54.4,29.95,SSE,164,0.0,0.0,49,0.00,,,0.00,Wunderground v.1.15,2013-08-23 21:49:00,
2013-08-23 17:55:00,74.6,54.2,29.95,SSE,164,0.0,0.0,49,0.00,,,0.00,Wunderground v.1.15,2013-08-23 21:55:00,
2013-08-23 18:04:00,74.2,53.8,29.95,SSE,164,0.0,0.0,49,0.00,,,0.00,Wunderground v.1.15,2013-08-23 22:04:00,
2013-08-23 18:09:00,74.0,53.6,29.95,SSE,154,0.0,0.0,49,0.00,,,0.00,Wunderground v.1.15,2013-08-23 22:09:00,
2013-08-23 18:14:00,73.9,53.5,29.95,SSE,154,0.0,0.0,49,0.00,,,0.00,Wunderground v.1.15,2013-08-23 22:14:00,
2013-08-23 18:19:00,73.9,57.7,29.95,SSE,154,0.0,0.0,57,0.00,,,0.00,Wunderground v.1.15,2013-08-23 22:19:00,
2013-08-23 18:29:00,73.7,57.0,29.96,SSE,154,0.0,0.0,56,0.00,,,0.00,Wunderground v.1.15,2013-08-23 22:29:00,
2013-08-23 18:34:00,73.7,57.0,29.96,SSE,154,0.0,0.0,56,0.00,,,0.00,Wunderground v.1.15,2013-08-23 22:34:00,
2013-08-23 18:39:00,73.5,56.8,29.96,SSE,154,0.0,0.0,56,0.00,,,0.00,Wunderground v.1.15,2013-08-23 22:39:00,
2013-08-23 18:44:00,73.3,56.7,29.97,SSE,154,0.0,0.0,56,0.00,,,0.00,Wunderground v.1.15,2013-08-23 22:44:00,
2013-08-23 18:49:00,73.2,56.1,29.97,SSE,154,0.0,0.0,55,0.00,,,0.00,Wunderground v.1.15,2013-08-23 22:49:00,
2013-08-23 18:54:00,73.2,56.1,29.97,SSE,154,0.0,0.0,55,0.00,,,0.00,Wunderground v.1.15,2013-08-23 22:54:00,
2013-08-23 19:04:00,72.8,55.7,29.98,SSE,154,0.0,0.0,55,0.00,,,0.00,Wunderground v.1.15,2013-08-23 23:04:00,
2013-08-23 19:09:00,72.8,55.7,29.98,SSE,154,0.0,0.0,55,0.00,,,0.00,Wunderground v.1.15,2013-08-23 23:09:00,
2013-08-23 19:14:00,72.8,56.7,29.98,SSE,154,0.0,0.0,57,0.00,,,0.00,Wunderground v.1.15,2013-08-23 23:14:00,
2013-08-23 19:19:00,72.8,56.7,29.98,SSE,154,0.0,0.0,57,0.00,,,0.00,Wunderground v.1.15,2013-08-23 23:19:00,
2013-08-23 19:24:00,72.0,55.9,29.98,SSE,154,0.0,0.0,57,0.00,,,0.00,Wunderground v.1.15,2013-08-23 23:24:00,
2013-08-23 19:34:00,71.8,55.7,29.99,SSE,154,0.0,0.0,57,0.00,,,0.00,Wunderground v.1.15,2013-08-23 23:34:00,
2013-08-23 19:39:00,71.8,54.8,29.99,SSE,154,0.0,0.0,55,0.00,,,0.00,Wunderground v.1.15,2013-08-23 23:39:00,
2013-08-23 19:44:00,71.8,54.8,29.99,SSE,154,0.0,0.0,55,0.00,,,0.00,Wunderground v.1.15,2013-08-23 23:44:00,
2013-08-23 19:49:00,71.8,54.8,29.99,SSE,154,0.0,0.0,55,0.00,,,0.00,Wunderground v.1.15,2013-08-23 23:49:00,
2013-08-23 19:54:00,70.4,53.5,29.99,SSE,154,0.0,0.0,55,0.00,,,0.00,Wunderground v.1.15,2013-08-23 23:54:00,
2013-08-23 20:00:00,70.1,53.2,30.00,SSE,154,0.0,0.0,55,0.00,,,0.00,Wunderground v.1.15,2013-08-24 00:00:00,
2013-08-23 20:09:00,69.6,52.7,30.00,SSE,154,0.0,0.0,55,0.00,,,0.00,Wunderground v.1.15,2013-08-24 00:09:00,
2013-08-23 20:14:00,69.6,52.7,30.00,SSE,154,0.0,0.0,55,0.00,,,0.00,Wunderground v.1.15,2013-08-24 00:14:00,
2013-08-23 20:20:00,68.6,51.8,30.00,SSE,154,0.0,0.0,55,0.00,,,0.00,Wunderground v.1.15,2013-08-24 00:20:00,
2013-08-23 20:25:00,68.6,51.8,30.00,SSE,154,0.0,0.0,55,0.00,,,0.00,Wunderground v.1.15,2013-08-24 00:25:00,
2013-08-23 20:30:00,68.6,51.8,30.01,SSE,154,0.0,0.0,55,0.00,,,0.00,Wunderground v.1.15,2013-08-24 00:30:00,
2013-08-23 20:40:00,67.9,51.1,30.01,SSE,154,0.0,0.0,55,0.00,,,0.00,Wunderground v.1.15,2013-08-24 00:40:00,
2013-08-23 20:45:00,67.9,51.1,30.02,SSE,154,0.0,0.0,55,0.00,,,0.00,Wunderground v.1.15,2013-08-24 00:45:00,
2013-08-23 20:50:00,67.9,51.1,30.02,SSE,154,0.0,0.0,55,0.00,,,0.00,Wunderground v.1.15,2013-08-24 00:50:00,
2013-08-23 20:55:00,67.9,51.1,30.02,SSE,154,0.0,0.0,55,0.00,,,0.00,Wunderground v.1.15,2013-08-24 00:55:00,
2013-08-23 21:00:00,67.9,51.1,30.03,SSE,154,0.0,0.0,55,0.00,,,0.00,Wunderground v.1.15,2013-08-24 01:00:00,
2013-08-23 21:05:00,67.9,51.1,30.03,SSE,154,0.0,0.0,55,0.00,,,0.00,Wunderground v.1.15,2013-08-24 01:05:00,
2013-08-23 21:15:00,66.0,49.4,30.04,SSE,154,0.0,0.0,55,0.00,,,0.00,Wunderground v.1.15,2013-08-24 01:15:00,
2013-08-23 21:20:00,65.5,48.9,30.04,SSE,154,0.0,0.0,55,0.00,,,0.00,Wunderground v.1.15,2013-08-24 01:20:00,
2013-08-23 21:25:00,65.3,48.7,30.04,SSE,154,0.0,0.0,55,0.00,,,0.00,Wunderground v.1.15,2013-08-24 01:25:00,
2013-08-23 21:34:00,64.8,48.2,30.04,SSE,154,0.0,0.0,55,0.00,,,0.00,Wunderground v.1.15,2013-08-24 01:34:00,
2013-08-23 21:39:00,64.7,48.2,30.04,SSE,154,0.0,0.0,55,0.00,,,0.00,Wunderground v.1.15,2013-08-24 01:39:00,
2013-08-23 21:45:00,64.7,48.2,30.05,SSE,154,0.0,0.0,55,0.00,,,0.00,Wunderground v.1.15,2013-08-24 01:45:00,
2013-08-23 21:54:00,64.0,47.5,30.05,SSE,154,0.0,0.0,55,0.00,,,0.00,Wunderground v.1.15,2013-08-24 01:54:00,
2013-08-23 21:59:00,64.0,47.5,30.05,SSE,154,0.0,0.0,55,0.00,,,0.00,Wunderground v.1.15,2013-08-24 01:59:00,
2013-08-23 22:04:00,64.0,52.0,30.05,SSE,154,0.0,0.0,65,0.00,,,0.00,Wunderground v.1.15,2013-08-24 02:04:00,
2013-08-23 22:09:00,64.0,52.0,30.05,SSE,154,0.0,0.0,65,0.00,,,0.00,Wunderground v.1.15,2013-08-24 02:09:00,
2013-08-23 22:19:00,64.0,52.0,30.06,SSE,154,0.0,0.0,65,0.00,,,0.00,Wunderground v.1.15,2013-08-24 02:19:00,
2013-08-23 22:24:00,62.6,50.7,30.06,SSE,154,0.0,0.0,65,0.00,,,0.00,Wunderground v.1.15,2013-08-24 02:24:00,
2013-08-23 22:29:00,62.3,51.6,30.07,SSE,154,0.0,0.0,68,0.00,,,0.00,Wunderground v.1.15,2013-08-24 02:29:00,
2013-08-23 22:34:00,62.3,51.6,30.07,SSE,154,0.0,0.0,68,0.00,,,0.00,Wunderground v.1.15,2013-08-24 02:34:00,
2013-08-23 22:39:00,62.3,51.6,30.07,SSE,154,0.0,0.0,68,0.00,,,0.00,Wunderground v.1.15,2013-08-24 02:39:00,
2013-08-23 22:44:00,62.3,51.6,30.07,SSE,154,0.0,0.0,68,0.00,,,0.00,Wunderground v.1.15,2013-08-24 02:44:00,
2013-08-23 22:54:00,62.3,51.6,30.07,SSE,154,0.0,0.0,68,0.00,,,0.00,Wunderground v.1.15,2013-08-24 02:54:00,
2013-08-23 22:59:00,62.3,51.6,30.08,SSE,154,0.0,0.0,68,0.00,,,0.00,Wunderground v.1.15,2013-08-24 02:59:00,
2013-08-23 23:04:00,62.3,51.6,30.08,SSE,154,0.0,0.0,68,0.00,,,0.00,Wunderground v.1.15,2013-08-24 03:04:00,
2013-08-23 23:09:00,60.4,49.8,30.08,SSE,154,0.0,0.0,68,0.00,,,0.00,Wunderground v.1.15,2013-08-24 03:09:00,
2013-08-23 23:14:00,60.4,49.8,30.08,SSE,154,0.0,0.0,68,0.00,,,0.00,Wunderground v.1.15,2013-08-24 03:14:00,
2013-08-23 23:24:00,60.4,49.8,30.08,SSE,154,0.0,0.0,68,0.00,,,0.00,Wunderground v.1.15,2013-08-24 03:24:00,
2013-08-23 23:29:00,59.5,48.9,30.09,SSE,154,0.0,0.0,68,0.00,,,0.00,Wunderground v.1.15,2013-08-24 03:29:00,
2013-08-23 23:34:00,59.5,48.9,30.09,SSE,154,0.0,0.0,68,0.00,,,0.00,Wunderground v.1.15,2013-08-24 03:34:00,
2013-08-23 23:40:00,59.5,48.9,30.09,SSE,154,0.0,0.0,68,0.00,,,0.00,Wunderground v.1.15,2013-08-24 03:40:00,
2013-08-23 23:45:00,58.9,48.4,30.09,SSE,154,0.0,0.0,68,0.00,,,0.00,Wunderground v.1.15,2013-08-24 03:45:00,
2013-08-23 23:50:00,58.9,51.3,30.09,SSE,154,0.0,0.0,76,0.00,,,0.00,Wunderground v.1.15,2013-08-24 03:50:00,
2013-08-23 23:59:00,58.4,50.9,30.10,SSE,154,0.0,0.0,76,0.00,,,0.00,Wunderground v.1.15,2013-08-24 03:59:00,